Theta_e
304 304 304 305 304 304 305 305 305 306 306 307 307 308 308 309 309 311 312 313 313 313 313 313 313 313 313 313 312 311 311 311 311 311 308 306 306 305 306 307 307 307 308
305 305 305 305 305 305 304 305 306 306 306 307 307 308 307 307 309 308 308 309 311 312 312 313 313 312 311 310 310 310 309 307 307 306 305 305 305 305 306 306 307 308 307
305 304 304 304 305 304 304 305 306 305 307 306 306 307 308 309 310 309 308 309 311 312 311 311 309 309 309 307 307 306 306 305 305 306 305 304 304 305 305 305 306 306 307
304 304 304 304 305 304 305 305 306 306 307 306 305 305 305 307 307 306 308 310 310 309 308 307 306 305 304 305 305 305 306 305 305 306 306 305 305 304 304 304 304 305 306
304 303 303 304 305 303 304 304 305 304 305 305 304 304 305 306 305 306 308 308 308 307 305 305 304 305 305 303 303 304 304 305 305 304 305 305 305 305 305 305 305 305 305
302 302 302 303 303 302 302 303 304 305 305 305 306 305 305 303 304 305 306 306 306 307 306 306 306 306 306 304 304 305 305 304 304 305 305 305 305 304 303 304 304 305 305
302 302 303 303 303 303 304 304 305 307 306 305 306 305 305 303 304 305 306 307 306 306 305 304 304 305 303 299 299 302 305 305 304 304 305 305 304 303 302 303 303 304 305
302 303 303 303 304 304 305 306 307 308 307 307 307 306 305 300 300 302 304 307 308 307 304 302 303 303 302 302 303 305 305 306 307 306 305 304 303 303 303 302 303 303 304
303 304 304 305 304 305 306 307 308 308 306 306 307 302 303 298 298 298 304 306 306 306 303 301 300 300 300 301 304 305 305 306 306 305 305 304 304 302 302 302 303 303 304
304 305 305 305 307 308 308 307 306 307 307 306 307 304 302 302 300 299 302 303 304 302 302 302 300 300 300 300 301 301 302 302 302 302 303 303 302 302 302 302 302 303 303
305 305 306 307 306 306 306 307 306 307 306 305 307 306 305 301 300 299 299 301 301 304 302 302 301 300 300 300 300 300 300 301 301 301 302 302 301 302 301 302 302 302 302
305 306 306 306 305 304 302 301 302 302 305 304 305 303 301 299 298 299 300 300 301 302 303 303 302 301 301 300 300 300 300 301 301 300 301 301 302 301 301 302 301 301 301
306 305 304 302 303 303 300 298 298 298 300 303 302 302 301 299 296 296 298 299 300 301 300 301 301 301 300 301 300 300 300 299 300 301 300 301 301 301 301 300 301 300 300
305 305 304 303 300 299 300 299 297 294 296 297 301 301 298 298 296 296 296 297 298 298 299 301 301 301 301 300 300 300 300 299 301 301 301 300 300 300 299 300 300 300 300
304 305 305 305 305 301 302 302 300 296 294 294 295 298 296 296 295 296 296 297 298 299 300 302 302 302 301 300 299 300 300 299 301 300 300 299 299 297 298 299 298 299 300
305 304 303 304 304 304 305 304 301 298 295 295 296 297 297 297 297 298 299 299 300 301 301 302 302 302 301 299 299 299 300 300 300 300 299 298 297 297 297 298 297 299 298
302 304 304 304 304 304 304 305 304 299 298 297 297 298 298 298 299 300 301 301 301 301 301 300 299 299 299 299 298 299 299 298 300 300 298 297 297 296 296 297 297 297 298
304 303 303 304 303 303 304 303 303 303 302 301 299 299 299 299 299 300 301 301 302 301 300 300 299 299 299 299 298 298 298 297 299 298 297 296 295 295 295 296 296 296 297
301 302 303 304 304 303 303 303 303 303 303 302 300 300 301 301 301 301 302 302 301 301 300 299 299 298 298 298 297 297 297 295 297 298 296 295 294 294 295 295 296 296 296
304 302 302 303 304 304 304 304 303 303 303 303 302 300 301 301 303 302 302 301 300 300 300 299 298 298 297 297 296 296 296 295 295 296 295 294 294 294 294 294 296 296 296
305 304 303 303 304 303 303 304 303 303 303 303 302 301 301 301 302 302 301 301 300 300 299 299 298 297 297 296 295 295 294 294 294 295 294 293 293 294 294 294 296 296 295
306 304 304 304 304 303 303 303 303 303 303 303 302 302 301 302 302 301 301 300 300 299 299 299 297 296 295 294 294 293 293 293 292 293 294 293 293 293 293 294 295 294 295
304 304 304 304 304 303 304 304 304 303 303 303 303 302 302 302 302 301 301 300 300 299 299 299 297 297 295 294 292 292 292 292 293 295 294 293 293 293 293 294 294 294 294
304 305 304 304 304 304 304 304 304 303 303 303 303 302 302 302 301 301 301 300 300 299 299 299 298 297 296 294 293 291 291 293 295 296 295 294 294 294 294 294 294 295 295
305 304 304 304 305 304 304 304 304 304 304 303 303 303 303 302 301 301 300 300 299 299 299 298 298 296 295 295 293 292 292 293 296 297 296 294 294 294 295 294 295 295 296
305 304 304 304 305 304 304 304 304 304 304 303 304 303 303 302 301 300 300 300 300 299 299 298 298 296 294 294 294 293 292 294 295 297 296 295 294 295 296 295 296 297 297
Wind_Speed
18 17 15 15 15 15 16 18 19 19 18 19 19 17 21 19 22 24 18 16 16 16 14 10 8 7 8 9 10 11 10 11 7 15 16 19 17 18 18 13 13 13 13
16 17 20 16 17 15 15 16 17 18 20 19 17 16 17 21 19 18 19 20 19 18 14 13 13 13 12 11 11 11 11 12 12 11 14 16 20 20 19 18 18 15 15
19 19 18 19 18 19 19 17 18 19 19 20 18 19 19 21 12 18 19 20 17 15 16 15 16 15 14 13 11 13 11 10 10 9 10 12 16 14 16 18 16 15 14
16 17 18 25 15 19 19 19 18 21 22 21 19 18 16 18 18 18 17 17 14 17 16 16 14 14 13 12 11 10 11 12 13 14 12 11 12 13 11 14 21 22 17
16 17 20 21 19 20 19 18 20 21 24 21 23 26 22 21 19 18 15 18 16 15 16 15 16 15 15 11 10 10 10 11 12 11 11 15 9 13 12 16 17 18 21
15 16 17 19 17 17 17 16 19 19 20 18 20 21 22 23 24 22 19 19 19 16 15 14 12 12 13 15 15 14 10 9 9 8 8 10 10 11 15 17 17 15 4
13 14 15 15 15 15 14 15 15 16 18 18 18 19 20 25 22 20 15 9 10 9 13 16 16 14 19 19 16 12 13 12 12 12 14 11 12 13 16 18 18 17 16
11 11 11 11 12 13 13 12 13 12 12 13 15 15 16 25 22 21 17 6 6 8 12 17 17 17 19 21 16 17 17 13 10 9 9 14 13 15 17 17 20 20 18
10 9 9 10 10 9 11 12 13 11 9 10 12 18 18 23 27 24 24 21 15 7 10 19 21 17 18 21 20 21 18 17 12 12 13 13 11 14 14 14 16 15 9
7 6 8 9 8 10 11 10 12 9 8 6 5 10 12 16 23 26 24 23 22 17 18 15 16 14 15 12 14 16 14 15 17 20 17 15 14 14 11 11 12 12 10
4 4 5 6 8 9 14 15 17 12 6 8 6 9 13 16 21 26 19 19 22 15 12 13 14 16 14 11 11 12 12 11 13 15 17 16 20 16 21 16 14 12 12
1 3 5 9 12 14 17 23 23 26 19 18 13 14 16 19 20 19 23 16 19 18 16 18 20 19 19 17 13 12 13 10 11 13 15 15 17 18 21 17 11 12 8
2 10 12 11 11 15 18 19 20 22 22 18 19 19 17 19 21 21 17 20 18 20 19 21 17 19 16 19 19 16 12 19 16 15 14 16 17 18 16 19 15 15 9
5 5 5 7 12 13 12 12 16 16 15 15 14 15 18 16 17 20 22 21 22 23 28 18 18 19 19 19 19 18 14 19 17 15 15 17 20 18 19 19 14 15 15
4 6 3 4 4 6 7 8 7 13 16 13 13 11 13 14 14 16 19 23 24 25 24 16 18 19 19 20 21 19 19 19 18 18 16 18 18 20 19 18 20 16 13
5 6 6 6 8 8 2 2 2 5 8 11 13 16 10 14 14 17 19 23 17 24 18 18 18 18 18 20 21 20 21 18 17 19 16 19 19 16 17 17 17 13 13
6 8 9 8 10 7 9 4 7 3 1 2 6 10 13 13 15 19 24 22 18 22 21 18 19 21 21 20 22 20 20 21 19 17 23 22 19 18 16 15 14 16 11
4 4 7 5 7 11 10 7 8 4 2 5 4 10 13 15 13 13 17 19 18 20 21 21 20 22 22 21 23 22 22 24 18 15 26 22 21 18 16 15 15 13 13
8 9 9 14 3 6 8 10 8 7 7 7 12 16 16 19 10 13 16 18 19 19 21 22 22 23 24 24 25 24 23 25 24 17 27 23 21 19 17 16 15 14 12
2 6 7 11 8 9 8 10 10 10 9 7 7 11 13 18 14 16 17 17 18 19 20 21 23 24 26 26 26 26 25 26 25 19 26 25 21 19 16 16 15 13 9
5 7 5 10 9 9 13 9 9 10 10 11 5 4 12 13 12 15 16 18 17 19 20 21 24 24 25 26 26 26 25 24 26 23 25 26 22 18 17 15 13 8 7
13 4 6 8 6 8 6 10 11 15 14 9 11 6 9 11 13 14 15 15 16 17 18 19 23 23 25 25 26 26 25 25 27 24 27 25 20 18 16 13 9 8 8
13 5 7 8 8 10 6 11 8 6 9 11 11 11 10 11 11 12 13 14 15 15 17 17 20 21 23 24 25 26 25 33 25 27 26 24 20 17 13 10 8 9 8
15 3 6 7 5 6 7 8 11 8 8 10 9 9 11 11 11 11 12 14 14 15 15 15 17 19 22 24 28 29 30 32 24 31 24 22 20 17 13 9 9 9 8
5 5 8 7 8 9 11 11 13 13 12 14 9 9 9 9 9 9 10 11 12 12 13 13 14 16 20 23 31 31 28 33 21 34 26 21 20 15 14 12 11 11 11
7 7 7 8 9 11 13 11 11 10 12 14 11 10 12 11 11 9 6 8 10 10 11 12 11 13 23 26 30 31 29 28 22 30 28 22 19 16 16 15 13 13 14
Wind_Direction
2 355 352 354 351 350 350 345 341 335 329 326 337 335 343 348 2 8 358 1 7 21 25 19 2 344 339 330 325 320 310 304 293 321 339 337 335 323 312 301 298 295 288
3 3 3 1 357 358 353 345 344 344 347 341 338 340 342 344 354 2 7 7 7 3 13 16 18 18 30 29 13 7 4 355 351 331 328 338 334 333 324 323 313 300 290
9 5 360 354 359 357 356 357 359 352 354 354 1 357 353 354 360 4 358 356 0 26 39 35 29 28 22 13 3 353 344 342 331 303 306 332 6 360 344 332 328 319 299
7 1 357 1 8 5 5 4 2 8 17 19 6 359 354 354 358 356 5 11 43 45 37 32 24 24 23 17 15 13 357 351 8 350 346 350 344 348 341 341 339 335 321
10 4 1 0 14 10 14 13 21 31 29 31 34 33 39 32 28 40 35 39 37 40 35 40 42 29 13 14 9 354 348 358 359 357 5 337 331 334 349 344 337 329 332
10 7 9 11 18 26 28 32 35 27 31 31 30 38 41 40 42 46 42 50 51 47 38 25 18 1 6 353 342 341 327 308 317 325 322 312 331 353 345 337 333 332 325
18 13 13 20 26 25 23 27 27 34 46 39 42 42 33 27 19 16 21 43 56 50 40 25 16 9 351 347 343 328 309 296 292 294 301 325 330 337 336 334 331 326 311
19 19 23 21 20 24 31 19 20 39 44 41 38 37 32 18 17 13 2 343 340 54 48 41 31 14 15 4 359 341 337 350 303 292 305 323 320 322 322 319 315 316 340
25 25 31 25 26 24 11 1 8 23 29 34 51 38 44 36 27 17 21 11 19 68 60 42 24 17 18 22 15 11 19 16 7 342 330 327 327 329 326 321 322 331 338
40 25 7 4 352 0 2 360 357 348 336 333 39 47 42 20 22 22 27 18 24 33 30 20 11 8 9 11 5 3 359 355 1 6 2 2 5 358 357 344 333 341 341
7 5 353 26 17 357 356 2 12 10 36 38 58 51 38 32 22 13 15 21 6 358 18 5 347 349 339 350 354 344 349 8 16 357 0 2 360 359 350 345 348 347 337
22 310 352 28 26 35 21 20 16 14 19 25 35 53 44 21 9 10 15 2 357 347 354 332 326 328 334 325 316 327 340 350 16 14 8 2 358 355 356 341 353 358 352
281 51 54 44 27 34 50 34 22 16 12 17 19 15 27 20 8 11 15 9 359 358 343 340 355 360 4 6 15 0 352 14 349 13 6 1 353 352 356 1 349 352 2
56 84 105 96 63 62 53 45 40 32 20 19 6 18 7 7 359 8 6 5 356 354 343 352 8 6 9 10 4 13 18 16 43 20 13 4 -0 358 353 357 352 340 348
36 3 41 122 151 114 81 66 51 51 49 40 34 13 9 353 352 354 349 343 339 345 342 1 10 5 7 7 3 8 8 17 31 27 18 11 3 354 348 346 346 339 333
34 56 5 22 18 11 218 184 102 67 65 61 50 41 22 13 8 356 347 342 341 358 355 13 8 7 7 7 2 4 7 19 31 19 17 9 348 338 337 341 339 341 335
16 338 2 17 3 353 354 350 190 225 220 50 46 25 8 5 17 13 4 5 27 15 8 13 11 6 5 8 1 0 5 10 16 31 10 348 344 340 333 330 335 338 334
338 303 333 18 10 345 347 360 28 20 341 251 330 355 341 329 330 349 5 8 16 22 10 8 13 7 5 5 1 0 9 7 7 20 6 350 345 342 338 338 334 332 334
17 3 329 328 346 308 328 355 17 16 6 35 30 1 348 339 330 2 23 15 12 21 15 5 13 11 6 7 4 1 9 7 360 13 355 343 341 341 336 335 332 338 337
140 22 332 321 324 357 0 0 3 356 360 19 64 19 355 348 358 23 19 17 17 17 18 9 13 15 9 6 5 359 5 1 352 355 348 345 339 340 337 336 340 342 6
288 245 298 313 7 19 348 348 350 353 4 5 52 37 13 333 358 20 22 11 18 17 20 14 17 17 11 6 4 359 1 355 350 344 340 342 340 343 345 348 353 19 25
306 354 317 322 6 3 343 318 9 356 352 7 6 6 2 8 18 17 15 14 15 20 21 22 24 18 13 7 2 358 357 351 345 343 339 345 343 345 351 0 24 44 48
293 329 330 339 16 337 301 332 338 358 346 344 16 3 2 7 8 20 10 11 15 22 23 29 31 19 15 8 3 360 358 356 0 349 357 351 349 354 3 15 42 55 61
292 355 336 339 334 332 337 334 329 347 325 350 4 5 4 3 11 15 16 11 23 11 24 32 31 23 14 9 4 4 2 6 9 9 7 3 3 13 20 36 59 66 69
322 358 336 346 334 346 341 351 349 346 358 357 358 356 350 357 5 12 18 12 13 19 16 27 33 25 17 6 7 7 5 10 9 11 14 20 22 31 44 60 70 78 68
12 11 346 348 1 358 341 351 339 349 5 332 356 12 350 350 5 355 15 7 7 15 18 21 27 18 16 9 10 9 9 8 14 18 18 24 34 40 60 71 75 63 76